LU8FJH-13 Weather Reports


time (UTC)temp
F
wind
direction
speed
knots
gust
knots
rain 1hr
in
rain 24hr
in
rain mn
in
humidity
%
barometer
mb
20260508194606 61 170 3.5 7.8 0.00 0.01 0.01 20 1008.3
20260508193706 62 140 3.5 9.6 0.00 0.01 0.01 19 1008.2
20260508192806 62 184 2.6 11.3 0.00 0.01 0.01 19 1008.5
20260508191905 63 169 2.6 13.0 0.00 0.01 0.01 18 1008.1
20260508191005 63 166 3.5 13.9 0.00 0.01 0.01 18 1008.2
20260508190106 62 195 4.3 10.4 0.01 0.01 0.01 19 1008.5
20260508185205 63 150 5.2 10.4 0.01 0.01 0.01 18 1008.3
20260508184305 62 130 3.5 14.8 0.01 0.01 0.01 19 1008.6
20260508183406 63 150 4.3 12.2 0.01 0.01 0.01 18 1008.5
20260508182505 62 137 2.6 13.0 0.01 0.01 0.01 20 1008.5
20260508181606 62 157 5.2 13.0 0.01 0.01 0.01 20 1008.6
20260508180706 63 159 4.3 15.6 0.01 0.01 0.01 19 1008.5
20260508175805 63 135 3.5 13.9 0.00 0.00 0.00 19 1008.8
20260508174905 63 101 4.3 14.8 0.00 0.00 0.00 20 1008.7
20260508174005 63 108 5.2 10.4 0.00 0.00 0.00 22 1008.7
20260508173105 62 170 3.5 13.9 0.00 0.00 0.00 22 1008.6
20260508172205 61 175 9.6 13.0 0.00 0.00 0.00 22 1008.9
20260508171305 62 141 3.5 13.0 0.00 0.00 0.00 21 1008.8
20260508170412 63 148 4.3 16.5 0.00 0.00 0.00 21 1008.9
20260508165505 62 172 1.7 18.2 0.00 0.00 0.00 25 1009.1
20260508164605 60 147 2.6 12.2 0.00 0.00 0.00 26 1009.3
20260508163705 61 146 6.1 14.8 0.00 0.00 0.00 27 1009.6
20260508162805 61 136 1.7 10.4 0.00 0.00 0.00 26 1009.6
20260508161905 62 172 6.1 13.9 0.00 0.00 0.00 25 1009.6
20260508161005 62 140 2.6 13.0 0.00 0.00 0.00 25 1009.6
20260508160105 62 136 1.7 9.6 0.00 0.00 0.00 27 1010.0
20260508155205 60 171 1.7 12.2 0.00 0.00 0.00 30 1010.0
20260508154305 59 132 3.5 14.8 0.00 0.00 0.00 30 1010.0
20260508153405 59 156 7.0 14.8 0.00 0.00 0.00 31 1010.1
20260508152505 58 171 3.5 12.2 0.00 0.00 0.00 32 1010.1
20260508151605 58 186 2.6 16.5 0.00 0.00 0.00 32 1010.3
20260508150705 57 217 7.8 13.0 0.00 0.00 0.00 33 1010.3
20260508145805 57 139 4.3 13.9 0.00 0.00 0.00 33 1010.2
20260508144905 56 126 5.2 13.9 0.00 0.00 0.00 35 1010.1
20260508144005 56 181 7.0 14.8 0.00 0.00 0.00 34 1010.4
20260508143105 56 194 3.5 13.0 0.00 0.00 0.00 34 1010.2
20260508141305 56 130 2.6 14.8 0.00 0.00 0.00 35 1010.6
20260508140405 55 154 3.5 13.0 0.00 0.00 0.00 36 1010.6
20260508135505 55 181 8.7 12.2 0.00 0.00 0.00 37 1010.6
20260508134605 54 201 5.2 12.2 0.00 0.00 0.00 38 1010.4
20260508133705 53 149 2.6 13.0 0.00 0.00 0.00 40 1010.2
20260508132805 53 90 7.0 12.2 0.00 0.00 0.00 41 1010.3
20260508131905 52 123 7.0 13.0 0.00 0.00 0.00 41 1010.1
20260508131005 53 105 3.5 10.4 0.00 0.00 0.00 42 1010.4
20260508130105 53 144 3.5 13.9 0.00 0.00 0.00 42 1010.0
20260508125205 52 173 2.6 14.8 0.00 0.00 0.00 44 1009.8
20260508124305 51 151 4.3 13.0 0.00 0.00 0.00 45 1009.9
20260508123405 52 161 4.3 13.0 0.00 0.00 0.00 43 1009.6
20260508122505 51 159 3.5 11.3 0.00 0.00 0.00 46 1009.6
20260508121605 51 168 4.3 10.4 0.00 0.00 0.00 47 1009.4
20260508120705 50 174 2.6 9.6 0.00 0.00 0.00 49 1009.6
20260508115805 49 176 4.3 9.6 0.00 0.00 0.00 51 1009.5
20260508114905 49 139 3.5 9.6 0.00 0.00 0.00 50 1009.8
20260508114005 49 139 1.7 13.0 0.00 0.00 0.00 51 1009.5
20260508113105 47 167 2.6 8.7 0.00 0.00 0.00 53 1009.2
20260508112205 47 166 2.6 9.6 0.00 0.00 0.00 53 1009.5
20260508111305 46 154 3.5 13.0 0.00 0.00 0.00 53 1009.2
20260508110405 46 126 6.1 13.0 0.00 0.00 0.00 52 1009.2
20260508105505 46 107 3.5 9.6 0.00 0.00 0.00 53 1009.1
20260508104605 46 85 1.7 9.6 0.00 0.00 0.00 53 1009.0
20260508103705 46 130 2.6 9.6 0.00 0.00 0.00 53 1008.8
20260508102805 46 114 5.2 9.6 0.00 0.00 0.00 53 1008.6
20260508101905 46 174 6.1 10.4 0.00 0.00 0.00 53 1008.5
20260508101005 46 151 7.0 11.3 0.00 0.00 0.00 54 1008.6
20260508100105 47 166 7.0 11.3 0.00 0.00 0.00 53 1008.6
20260508095205 47 168 3.5 13.0 0.00 0.00 0.00 53 1008.6
20260508094305 47 137 2.6 9.6 0.00 0.00 0.00 54 1008.5
20260508093405 47 157 1.7 9.6 0.00 0.00 0.00 54 1008.4
20260508092505 47 166 5.2 12.2 0.00 0.00 0.00 54 1008.5
20260508091605 47 193 3.5 13.0 0.00 0.00 0.00 54 1008.2
20260508090705 47 184 1.7 9.6 0.00 0.00 0.00 54 1008.2
20260508085805 47 171 2.6 14.8 0.00 0.00 0.00 54 1008.0
20260508084905 47 158 7.0 14.8 0.00 0.00 0.00 54 1008.0
20260508084005 47 146 2.6 13.0 0.00 0.00 0.00 56 1008.0
20260508083105 46 160 9.6 11.3 0.00 0.00 0.00 60 1007.8
20260508082205 46 155 2.6 9.6 0.00 0.00 0.00 62 1007.7
20260508081305 46 108 1.7 7.0 0.00 0.00 0.00 62 1007.7
20260508080405 46 170 3.5 7.0 0.00 0.00 0.00 62 1007.6
20260508075505 47 168 1.7 7.0 0.00 0.00 0.00 62 1007.9
20260508074605 47 171 1.7 11.3 0.00 0.00 0.00 62 1008.0
20260508073705 48 119 3.5 9.6 0.00 0.00 0.00 61 1007.8
20260508072804 48 132 3.5 8.7 0.00 0.00 0.00 61 1008.1
20260508071905 48 135 3.5 7.0 0.00 0.00 0.00 62 1008.2
20260508071005 48 135 1.7 7.0 0.00 0.00 0.00 62 1008.0
20260508070105 49 135 1.7 7.8 0.00 0.00 0.00 61 1008.3
20260508065205 49 134 1.7 7.8 0.00 0.00 0.00 60 1008.5
20260508064305 49 146 4.3 7.8 0.00 0.00 0.00 60 1008.3
20260508063405 50 152 3.5 7.0 0.00 0.00 0.00 59 1008.3
20260508062505 50 135 2.6 8.7 0.00 0.00 0.00 58 1008.5
20260508061604 50 135 3.5 7.8 0.00 0.00 0.00 58 1008.4
20260508060705 51 133 2.6 9.6 0.00 0.00 0.00 59 1008.6
20260508055804 51 150 0.9 7.8 0.00 0.00 0.00 60 1008.6
20260508054905 51 161 3.5 9.6 0.00 0.00 0.00 60 1008.4
20260508054004 51 181 2.6 8.7 0.00 0.00 0.00 59 1008.3
20260508053104 51 152 3.5 11.3 0.00 0.01 0.00 60 1008.3
20260508052205 51 185 3.5 11.3 0.00 0.01 0.00 61 1008.5
20260508051304 51 197 3.5 9.6 0.00 0.01 0.00 63 1008.2
20260508050404 51 262 1.7 9.6 0.00 0.01 0.00 65 1008.1
20260508045505 51 218 1.7 7.8 0.00 0.01 0.00 65 1008.2
20260508044604 51 183 0.9 7.0 0.00 0.01 0.00 65 1008.3
20260508043704 51 220 2.6 7.8 0.00 0.01 0.00 66 1008.3
20260508042804 51 219 1.7 7.0 0.00 0.01 0.00 67 1008.4
20260508041904 51 94 1.7 5.2 0.00 0.04 0.00 66 1008.3
20260508041004 51 112 1.7 8.7 0.00 0.32 0.00 66 1008.2
20260508040105 51 163 2.6 7.0 0.00 0.48 0.00 66 1008.5
20260508035204 52 150 1.7 6.1 0.00 0.74 0.00 65 1008.2
20260508034304 52 185 1.7 7.0 0.00 0.91 0.00 65 1007.8
20260508033404 52 186 1.7 7.0 0.00 0.94 0.00 65 1008.0
20260508032505 53 174 1.7 5.2 0.00 0.94 0.00 65 1007.8
20260508031604 53 157 0.9 3.5 0.00 0.94 0.00 64 1007.7
20260508030704 54 141 0.9 6.1 0.00 0.94 0.00 63 1007.6
20260508025804 54 145 1.7 6.1 0.00 0.94 0.94 63 1007.4
20260508024904 54 155 0.9 6.1 0.00 0.94 0.94 62 1007.3
20260508024004 55 165 1.7 6.1 0.00 0.94 0.94 62 1007.3
20260508023104 55 137 3.5 6.1 0.00 0.94 0.94 61 1007.4
20260508022205 56 200 2.6 7.0 0.00 0.94 0.94 61 1007.1
20260508021304 56 157 2.6 5.2 0.00 0.94 0.94 61 1007.3
20260508020404 56 148 1.7 6.1 0.00 0.94 0.94 60 1007.4
20260508015504 57 164 1.7 7.8 0.00 0.94 0.94 59 1007.2
20260508014604 57 158 2.6 9.6 0.00 0.94 0.94 58 1007.3
20260508013704 57 165 3.5 9.6 0.00 0.94 0.94 57 1006.9
20260508012804 57 212 2.6 7.0 0.00 0.94 0.94 56 1007.0
20260508011904 57 163 2.6 7.0 0.00 0.94 0.94 56 1007.1
20260508011004 58 150 2.6 8.7 0.00 0.94 0.94 55 1007.3
20260508010104 58 154 1.7 9.6 0.00 0.94 0.94 54 1007.0
20260508005204 58 156 2.6 8.7 0.00 0.94 0.94 54 1007.4
20260508004304 59 150 6.1 9.6 0.00 0.94 0.94 53 1007.2
20260508003404 59 183 6.1 11.3 0.00 0.94 0.94 52 1007.0
20260508002504 59 189 3.5 11.3 0.00 0.94 0.94 51 1006.9
20260508001604 59 184 3.5 9.6 0.00 0.94 0.94 51 1007.0
20260508000704 59 145 4.3 13.0 0.00 0.94 0.94 51 1007.1
20260507235804 59 186 3.5 9.6 0.00 0.94 0.94 51 1007.2
20260507234904 60 199 2.6 10.4 0.00 0.94 0.94 51 1007.1
20260507234004 60 183 3.5 10.4 0.00 0.94 0.94 51 1007.2
20260507233104 60 166 4.3 6.1 0.00 0.94 0.94 52 1007.5
20260507232204 60 135 2.6 6.1 0.00 0.94 0.94 52 1007.2
20260507231304 60 127 1.7 10.4 0.00 0.94 0.94 53 1007.4
20260507230404 60 90 3.5 7.0 0.00 0.94 0.94 53 1007.5
20260507225504 60 90 1.7 7.8 0.00 0.94 0.94 53 1007.2
20260507224604 60 90 1.7 7.8 0.00 0.94 0.94 53 1007.2
20260507223704 60 90 1.7 6.1 0.00 0.94 0.94 53 1007.0
20260507222804 60 90 4.3 7.8 0.00 0.94 0.94 53 1006.9
20260507221904 60 90 3.5 7.8 0.00 0.94 0.94 53 1006.6
20260507221005 60 90 1.7 6.1 0.00 0.94 0.94 53 1006.4
20260507220104 60 90 1.7 8.7 0.00 0.94 0.94 53 1006.3
20260507215204 60 90 1.7 8.7 0.00 0.94 0.94 53 1005.9
20260507214304 61 90 2.6 7.0 0.00 0.94 0.94 53 1005.9
20260507213404 61 90 1.7 6.1 0.00 0.94 0.94 52 1005.8
20260507212504 61 90 1.7 8.7 0.00 0.94 0.94 51 1005.6
20260507211604 61 78 3.5 8.7 0.00 0.94 0.94 51 1005.6
20260507210704 61 127 3.5 12.2 0.00 0.94 0.94 51 1005.2
20260507205804 61 95 3.5 7.0 0.00 0.94 0.94 51 1005.3
20260507204904 62 115 1.7 7.8 0.00 0.94 0.94 51 1005.3
20260507204004 62 97 3.5 8.7 0.00 0.94 0.94 50 1005.6
20260507203104 62 116 5.2 9.6 0.00 0.94 0.94 50 1005.4
20260507202204 62 115 2.6 9.6 0.00 0.94 0.94 49 1005.7
20260507201304 63 96 3.5 10.4 0.00 0.94 0.94 48 1005.6
20260507200404 63 136 1.7 12.2 0.00 0.94 0.94 47 1005.3
20260507195504 63 128 6.1 12.2 0.00 0.94 0.94 47 1005.6